Charlottetown, Prince Edward Island

8:26 PM ADT on April 24, 2017 (GMT -0300)
Charlottetown

Weather History for CYYG - October, 2013

Change the Weather History Date:

Tuesday, October 1, 2013

  Actual Average Record
Temperature  
Mean Temperature 58 °F -  
Max Temperature 65 °F 54 °F 77 °F (2010)
Min Temperature 52 °F 39 °F 35 °F (2007)
Degree Days  
Heating Degree Days 6    
Growing Degree Days 8 (Base 50)    
Moisture  
Dew Point 52 °F    
Average Humidity 83    
Maximum Humidity 95    
Minimum Humidity 56    
Precipitation  
Precipitation 0.08 in 0.15 in - ()
Sea Level Pressure  
Sea Level Pressure 29.90 in    
Wind  
Wind Speed 4 mph ()    
Max Wind Speed 13 mph    
Max Gust Speed -    
Visibility 15.0 miles    
Events Rain    
Averages and records for this station are not official NWS values.
T = Trace of Precipitation, MM = Missing Value Source: Averaged Metar Reports

Daily Weather History Graph

Daily Weather History Graph

Search for Another Location

Airport or City:

Trip Planner

Search our weather history database for the weather conditions in past years. The results will help you decide how hot, cold, wet, or windy it might be!

Date:

Astronomy

Oct. 01, 2013 Rise Set
Actual Time 7:11 AM ADT 6:52 PM ADT
Civil Twilight 6:41 AM ADT 7:21 PM ADT
Nautical Twilight 6:06 AM ADT 7:56 PM ADT
Astronomical Twilight 5:30 AM ADT 8:32 PM ADT
Moon 3:31 AM ADT (10/1) 5:01 PM ADT (10/1)
Length of Visible Light 12h 40m
Length of Day
11h 40m
Waning Crescent, 12% of the Moon is Illuminated
Oct 1
Waning Crescent
Oct 4
New
Oct 11
First Quarter
Oct 18
Full
Oct 26
Last Quarter

Hourly Weather History & Observations

Time (ADT) Temp. Dew Point Humidity Pressure Visibility Wind Dir Wind Speed Gust Speed Precip Events Conditions
12:00 AM 57.2 °F 51.8 °F 82% 30.02 in 15.0 mi SSE 4.6 mph - N/A   Overcast
1:00 AM 55.4 °F 51.8 °F 88% 30.02 in 15.0 mi South 3.5 mph - N/A   Overcast
2:00 AM 57.2 °F 53.6 °F 88% 30.01 in 15.0 mi ESE 3.5 mph - N/A   Overcast
3:00 AM 54 °F 52 °F 92% 29.99 in 15 mi North 2.3 mph - -   Overcast
3:00 AM 55.4 °F 51.8 °F 88% 29.99 in 15.0 mi North 2.3 mph - N/A   Overcast
4:00 AM 53.6 °F 51.8 °F 94% 29.98 in 15.0 mi NE 2.3 mph - N/A   Partly Cloudy
5:00 AM 53.6 °F 51.8 °F 94% 29.97 in 15.0 mi NNE 2.3 mph - N/A   Overcast
6:00 AM 55.4 °F 51.8 °F 88% 29.96 in 15.0 mi NE 2.3 mph - N/A   Overcast
7:00 AM 53.6 °F 50.0 °F 88% 29.95 in 15.0 mi NE 3.5 mph - N/A   Mostly Cloudy
8:00 AM 55.4 °F 51.8 °F 88% 29.95 in 15.0 mi NE 4.6 mph - N/A   Mostly Cloudy
9:00 AM 58 °F 53 °F 79% 29.94 in 15 mi North 4.6 mph - -   Mostly Cloudy
9:00 AM 57.2 °F 53.6 °F 88% 29.94 in 15.0 mi North 4.6 mph - N/A   Mostly Cloudy
10:00 AM 60.8 °F 55.4 °F 82% 29.94 in 15.0 mi NNE 6.9 mph - N/A   Mostly Cloudy
11:00 AM 64.4 °F 51.8 °F 64% 29.92 in 15.0 mi ENE 10.4 mph - N/A   Mostly Cloudy
12:00 PM 64.4 °F 48.2 °F 56% 29.91 in 15.0 mi ENE 9.2 mph - N/A   Mostly Cloudy
1:00 PM 64.4 °F 50.0 °F 59% 29.88 in 15.0 mi NE 12.7 mph - N/A   Mostly Cloudy
2:00 PM 62.6 °F 51.8 °F 68% 29.85 in 15.0 mi NE 6.9 mph - N/A   Overcast
3:00 PM 61 °F 52 °F 64% 29.84 in 15 mi NE 5.8 mph - -   Overcast
3:00 PM 60.8 °F 51.8 °F 72% 29.84 in 15.0 mi NE 5.8 mph - N/A   Overcast
3:28 PM 60.8 °F 53.6 °F 77% 29.83 in 15.0 mi North 4.6 mph - N/A Rain Light Rain Showers
4:00 PM 59.0 °F 53.6 °F 82% 29.83 in 15.0 mi North 4.6 mph - N/A Rain Light Rain Showers
5:00 PM 59.0 °F 55.4 °F 88% 29.82 in 15.0 mi NNW 3.5 mph - N/A Rain Light Rain Showers
6:00 PM 55.4 °F 51.8 °F 88% 29.82 in 15.0 mi East 3.5 mph - N/A   Overcast
7:00 PM 55.4 °F 51.8 °F 88% 29.81 in 15.0 mi ENE 2.3 mph - N/A Rain Light Rain Showers
8:00 PM 53.6 °F 51.8 °F 94% 29.80 in 15.0 mi Calm Calm - N/A Rain Light Rain Showers
9:00 PM 53 °F 52 °F 95% 29.79 in 15 mi North 3.5 mph - - Rain Light Rain Showers
9:00 PM 53.6 °F 51.8 °F 94% 29.79 in 15.0 mi North 3.5 mph - N/A Rain Light Rain Showers
10:00 PM 53.6 °F 51.8 °F 94% 29.79 in 15.0 mi NNW 4.6 mph - N/A Rain Light Rain Showers
11:00 PM 53.6 °F 51.8 °F 94% 29.78 in 15.0 mi NNW 4.6 mph - N/A Rain Light Rain Showers